GW6607 Weather Reports


time (UTC)temp
C
wind
direction
speed
KPH
gust
KPH
rain 1hr
cm
rain 24hr
cm
rain mn
cm
humidity
%
barometer
mb
20260507105008 8 314 0.0 0.0 0.00 0.58 0.03 89 1007.3
20260507104524 8 314 0.0 0.0 0.00 0.58 0.03 89 1006.9
20260507104015 8 309 0.0 0.0 0.00 0.58 0.03 89 1006.9
20260507103508 8 309 0.0 0.0 0.00 0.58 0.03 89 1007.1
20260507103025 8 309 0.0 0.0 0.00 0.58 0.03 89 1007.7
20260507102510 8 309 0.0 0.0 0.00 0.58 0.03 89 1007.4
20260507102007 8 309 0.0 0.0 0.00 0.58 0.03 89 1007.2
20260507101526 8 309 0.0 3.2 0.00 0.58 0.03 89 1007.2
20260507101007 8 309 0.0 3.2 0.00 0.58 0.03 89 1007.2
20260507100507 8 309 0.0 3.2 0.00 0.58 0.03 89 1007.0
20260507100031 8 288 0.0 3.2 0.00 0.58 0.03 89 1007.0
20260507095509 8 301 0.0 3.2 0.00 0.58 0.03 89 1007.1
20260507095008 8 296 0.0 3.2 0.00 0.58 0.03 89 1007.0
20260507094526 8 269 0.0 4.8 0.00 0.58 0.03 89 1007.2
20260507094006 8 275 0.0 4.8 0.00 0.58 0.03 89 1007.0
20260507093510 8 310 1.6 4.8 0.00 0.58 0.03 89 1006.1
20260507093036 8 320 1.6 4.8 0.00 0.58 0.03 90 1006.5
20260507092512 8 332 0.0 3.2 0.00 0.58 0.03 90 1006.8
20260507092011 8 305 0.0 6.4 0.00 0.58 0.03 90 1006.6
20260507091526 8 303 0.0 8.0 0.00 0.58 0.03 90 1006.5
20260507091008 8 317 1.6 8.0 0.00 0.58 0.03 90 1006.2
20260507090506 8 315 1.6 8.0 0.00 0.58 0.03 90 1006.2
20260507090031 8 313 3.2 9.7 0.00 0.58 0.03 90 1006.4
20260507085507 9 328 3.2 9.7 0.00 0.58 0.03 90 1006.2
20260507085009 9 318 1.6 8.0 0.00 0.58 0.03 90 1006.2
20260507084522 10 311 0.0 8.0 0.00 0.58 0.03 90 1006.2
20260507084013 10 9 0.0 3.2 0.00 0.58 0.03 91 1006.2
20260507083510 10 294 0.0 3.2 0.00 0.58 0.03 92 1006.4
20260507083010 10 314 0.0 3.2 0.00 0.58 0.03 92 1006.7
20260507082503 10 307 0.0 3.2 0.00 0.58 0.03 92 1006.6
20260507082007 10 315 0.0 0.0 0.00 0.58 0.03 92 1006.5
20260507081512 10 330 0.0 0.0 0.00 0.58 0.03 91 1006.2
20260507081005 10 330 0.0 0.0 0.00 0.58 0.03 91 1006.1
20260507080507 10 330 0.0 0.0 0.00 0.58 0.03 91 1006.1
20260507080016 10 330 0.0 0.0 0.00 0.58 0.03 91 1006.1
20260507075506 10 330 0.0 0.0 0.00 0.58 0.03 91 1005.9
20260507075011 10 328 0.0 3.2 0.00 0.58 0.03 92 1005.8
20260507074527 10 355 0.0 3.2 0.00 0.58 0.03 92 1005.9
20260507074003 10 251 0.0 0.0 0.00 0.58 0.03 91 1006.1
20260507073503 10 251 0.0 0.0 0.00 0.58 0.03 91 1006.3
20260507073006 10 251 0.0 0.0 0.00 0.58 0.03 91 1006.1
20260507072504 10 340 0.0 0.0 0.00 0.58 0.03 91 1006.1
20260507072006 10 340 0.0 0.0 0.00 0.58 0.03 91 1006.0
20260507071510 10 340 0.0 0.0 0.00 0.58 0.03 92 1005.8
20260507071008 10 340 0.0 0.0 0.00 0.58 0.03 92 1005.6
20260507070508 10 338 0.0 0.0 0.00 0.58 0.03 92 1005.6
20260507070016 10 338 0.0 0.0 0.00 0.58 0.03 91 1005.7
20260507065512 10 338 0.0 3.2 0.00 0.58 0.03 91 1005.6
20260507065008 10 9 0.0 3.2 0.00 0.58 0.03 91 1005.5
20260507064520 10 355 0.0 3.2 0.00 0.58 0.03 91 1005.5
20260507064007 10 14 0.0 3.2 0.00 0.58 0.03 92 1005.8
20260507063508 10 15 0.0 3.2 0.00 0.58 0.03 91 1005.7
20260507063024 11 340 0.0 3.2 0.00 0.58 0.03 92 1005.7
20260507062504 11 350 0.0 3.2 0.00 0.58 0.03 92 1005.7
20260507062002 11 342 0.0 3.2 0.00 0.58 0.03 92 1005.5
20260507061506 11 312 0.0 6.4 0.00 0.58 0.03 92 1005.3
20260507061005 11 308 1.6 6.4 0.00 0.58 0.03 92 1005.5
20260507060504 11 314 0.0 3.2 0.00 0.58 0.03 92 1005.4
20260507060012 11 330 0.0 3.2 0.00 0.58 0.03 92 1005.5
20260507055504 11 313 0.0 4.8 0.00 0.58 0.03 92 1005.5
20260507055008 11 330 3.2 8.0 0.00 0.58 0.03 92 1005.5
20260507054518 11 319 3.2 8.0 0.00 0.58 0.03 92 1005.3
20260507054010 11 317 3.2 8.0 0.00 0.58 0.03 92 1005.2
20260507053509 11 298 1.6 6.4 0.00 0.58 0.03 92 1005.0
20260507053020 11 270 1.6 6.4 0.00 0.58 0.03 92 1005.2
20260507052510 11 309 1.6 4.8 0.00 0.58 0.03 92 1005.2
20260507052009 11 269 0.0 6.4 0.00 0.58 0.03 92 1005.0
20260507051524 11 322 1.6 6.4 0.03 0.58 0.03 92 1004.9
20260507051010 11 320 1.6 9.7 0.03 0.58 0.03 92 1004.9
20260507050504 11 324 3.2 9.7 0.03 0.58 0.03 92 1004.8
20260507050011 11 318 1.6 8.0 0.03 0.58 0.03 92 1005.2
20260507045506 12 249 1.6 11.3 0.03 0.58 0.03 92 1005.2
20260507045004 12 320 1.6 11.3 0.03 0.58 0.03 93 1005.3
20260507044515 12 230 1.6 6.4 0.03 0.58 0.03 93 1005.0
20260507044008 12 312 1.6 6.4 0.03 0.58 0.03 93 1004.5
20260507043507 12 279 3.2 8.0 0.03 0.58 0.03 93 1004.5
20260507043027 12 317 3.2 11.3 0.03 0.58 0.03 93 1004.4
20260507042510 12 288 3.2 14.5 0.05 0.58 0.03 93 1004.3
20260507042009 12 257 3.2 14.5 0.05 0.58 0.03 93 1004.4
20260507041524 12 286 3.2 12.9 0.03 0.56 0.00 93 1004.3
20260507041009 12 255 4.8 11.3 0.03 0.56 0.00 93 1004.3
20260507040510 12 314 3.2 12.9 0.03 0.56 0.00 93 1004.2
20260507040025 12 319 4.8 12.9 0.03 0.56 0.00 94 1004.6
20260507035504 12 303 1.6 4.8 0.03 0.56 0.56 94 1004.7
20260507035003 12 203 1.6 4.8 0.03 0.56 0.56 93 1004.7
20260507034518 12 205 0.0 3.2 0.03 0.56 0.56 95 1004.6
20260507034005 12 215 0.0 3.2 0.03 0.56 0.56 95 1004.7
20260507033510 12 252 1.6 4.8 0.03 0.56 0.56 95 1004.6
20260507033017 11 257 1.6 4.8 0.03 0.56 0.56 95 1004.4
20260507032511 10 306 0.0 3.2 0.00 0.53 0.53 95 1004.4
20260507032013 10 285 0.0 3.2 0.00 0.53 0.53 94 1004.3
20260507031521 9 200 0.0 0.0 0.00 0.53 0.53 92 1004.1
20260507031011 9 200 0.0 0.0 0.00 0.53 0.53 92 1004.0
20260507030512 9 211 0.0 0.0 0.00 0.53 0.53 92 1004.0
20260507030024 10 198 0.0 3.2 0.00 0.53 0.53 92 1004.0
20260507025507 10 182 0.0 3.2 0.00 0.53 0.53 91 1004.1
20260507025009 10 202 0.0 6.4 0.00 0.53 0.53 92 1004.1
20260507024528 11 202 1.6 6.4 0.00 0.53 0.53 92 1004.2
20260507024008 11 228 3.2 6.4 0.00 0.53 0.53 93 1004.3
20260507023504 11 183 3.2 6.4 0.00 0.53 0.53 93 1004.3
20260507023014 11 211 3.2 8.0 0.00 0.53 0.53 93 1004.3
20260507022506 11 215 3.2 14.5 0.00 0.53 0.53 93 1004.4
20260507022009 11 210 4.8 14.5 0.03 0.53 0.53 93 1004.4
20260507021519 11 224 6.4 12.9 0.03 0.53 0.53 94 1004.4
20260507021015 11 238 3.2 16.1 0.03 0.53 0.53 94 1004.6
20260507020510 10 205 6.4 16.1 0.03 0.53 0.53 94 1004.7
20260507020024 10 199 6.4 9.7 0.03 0.53 0.53 93 1004.7
20260507015509 10 217 4.8 9.7 0.03 0.53 0.53 93 1004.7
20260507015013 10 206 6.4 12.9 0.03 0.53 0.53 92 1004.7
20260507014525 10 207 8.0 17.7 0.03 0.53 0.53 92 1004.8
20260507014010 11 200 8.0 17.7 0.03 0.53 0.53 93 1004.9
20260507013507 10 217 9.7 17.7 0.03 0.53 0.53 93 1004.9
20260507013012 10 201 9.7 16.1 0.03 0.53 0.53 92 1005.0
20260507012508 10 208 9.7 20.9 0.03 0.53 0.53 92 1004.9
20260507012012 11 219 11.3 20.9 0.00 0.51 0.51 92 1004.9
20260507011532 11 213 11.3 19.3 0.00 0.51 0.51 93 1004.9
20260507011007 11 209 11.3 22.5 0.00 0.51 0.51 93 1004.9
20260507010505 11 221 9.7 22.5 0.00 0.51 0.51 93 1005.0
20260507010022 11 199 9.7 20.9 0.00 0.51 0.51 93 1005.0
20260507005512 11 187 12.9 20.9 0.00 0.51 0.51 93 1005.1
20260507005008 10 201 11.3 20.9 0.00 0.51 0.51 93 1005.1
20260507004523 10 209 11.3 19.3 0.00 0.51 0.51 93 1005.1
20260507004009 10 226 11.3 22.5 0.00 0.51 0.51 91 1005.1
20260507003511 11 215 12.9 22.5 0.00 0.51 0.51 93 1005.0
20260507003027 11 214 11.3 22.5 0.00 0.51 0.51 93 1005.1
20260507002509 10 221 11.3 20.9 0.00 0.51 0.51 92 1005.1
20260507002011 10 195 12.9 20.9 0.00 0.51 0.51 92 1005.1
20260507001514 10 203 11.3 20.9 0.00 0.51 0.51 93 1005.1
20260507001009 10 184 12.9 25.7 0.00 0.51 0.51 92 1005.1
20260507000509 10 206 16.1 22.5 0.00 0.51 0.51 92 1005.1
20260507000020 10 195 11.3 25.7 0.00 0.51 0.51 92 1005.2
20260506235508 11 227 12.9 30.6 0.00 0.51 0.51 92 1005.2
20260506235005 11 205 17.7 30.6 0.00 0.51 0.51 92 1005.3
20260506234530 11 223 16.1 25.7 0.00 0.51 0.51 92 1005.3
20260506234009 11 207 14.5 25.7 0.00 0.51 0.51 92 1005.3
20260506233509 11 245 16.1 24.1 0.00 0.51 0.51 92 1005.3
20260506233007 11 236 12.9 27.4 0.00 0.51 0.51 92 1005.3
20260506232504 11 200 12.9 27.4 0.03 0.51 0.51 92 1005.3
20260506232009 11 213 12.9 20.9 0.03 0.51 0.51 92 1005.4
20260506231513 11 203 12.9 22.5 0.03 0.51 0.51 92 1005.4
20260506231003 11 194 12.9 22.5 0.03 0.51 0.51 91 1005.5
20260506230504 11 225 11.3 22.5 0.03 0.51 0.51 91 1005.5
20260506230017 11 237 12.9 20.9 0.03 0.51 0.51 92 1005.6
20260506225505 11 207 11.3 20.9 0.05 0.51 0.51 92 1005.6
20260506225005 10 199 9.7 16.1 0.05 0.51 0.51 92 1005.6
20260506224504 10 173 8.0 14.5 0.08 0.51 0.51 92 1005.7
20260506224002 10 199 6.4 12.9 0.10 0.51 0.51 91 1005.6
20260506223502 10 217 8.0 19.3 0.13 0.51 0.51 91 1005.7
20260506223003 10 220 12.9 19.3 0.15 0.51 0.51 92 1005.7
20260506222506 10 213 9.7 17.7 0.15 0.48 0.48 91 1005.6
20260506222007 10 209 9.7 22.5 0.15 0.48 0.48 90 1005.7
20260506221509 11 190 11.3 22.5 0.18 0.48 0.48 91 1005.7
20260506221004 11 194 14.5 25.7 0.20 0.48 0.48 92 1005.8
20260506220505 11 244 12.9 25.7 0.20 0.48 0.48 91 1005.8
20260506220016 11 207 14.5 24.1 0.23 0.48 0.48 91 1005.9
20260506215506 11 203 16.1 27.4 0.23 0.46 0.46 91 1005.9
20260506215009 11 205 16.1 27.4 0.25 0.46 0.46 91 1005.8
20260506214519 11 199 16.1 24.1 0.25 0.43 0.43 91 1006.0
20260506214005 11 188 14.5 24.1 0.23 0.41 0.41 90 1006.1
20260506213509 11 204 14.5 25.7 0.23 0.38 0.38 90 1006.1
20260506213003 11 195 14.5 25.7 0.20 0.36 0.36 90 1006.0
20260506212505 11 214 14.5 24.1 0.18 0.33 0.33 89 1006.2
20260506212002 11 228 12.9 20.9 0.18 0.33 0.33 90 1006.3
20260506211506 11 202 9.7 25.7 0.18 0.30 0.30 90 1006.4
20260506211005 11 201 11.3 25.7 0.15 0.28 0.28 90 1006.4
20260506210507 11 202 12.9 25.7 0.15 0.28 0.28 90 1006.4
20260506210012 11 217 12.9 27.4 0.13 0.25 0.25 90 1006.4
20260506205505 11 222 16.1 27.4 0.10 0.23 0.23 90 1006.4
20260506205006 11 180 14.5 24.1 0.10 0.20 0.20 90 1006.4
20260506204516 10 236 12.9 19.3 0.08 0.18 0.18 89 1006.5
20260506204011 10 207 14.5 19.3 0.08 0.18 0.18 89 1006.4
20260506203506 10 169 14.5 19.3 0.08 0.15 0.15 90 1006.4
20260506203023 10 194 9.7 16.1 0.08 0.15 0.15 89 1006.3
20260506202509 10 195 12.9 17.7 0.10 0.15 0.15 88 1006.5
20260506202011 10 193 12.9 17.7 0.13 0.15 0.15 88 1006.4
20260506201504 10 198 12.9 16.1 0.10 0.13 0.13 87 1006.4
20260506201002 11 212 9.7 16.1 0.13 0.13 0.13 87 1006.4
20260506200504 11 192 9.7 12.9 0.13 0.13 0.13 87 1006.3
20260506200011 11 197 4.8 14.5 0.13 0.13 0.13 87 1006.2
20260506195508 11 177 6.4 14.5 0.13 0.13 0.13 85 1006.9
20260506195007 11 182 9.7 12.9 0.10 0.10 0.10 83 1006.9
20260506194514 12 194 9.7 11.3 0.10 0.10 0.10 84 1006.9
20260506194008 13 205 4.8 19.3 0.10 0.10 0.10 85 1007.0
20260506193505 13 217 4.8 20.9 0.08 0.08 0.08 84 1007.1
20260506193017 13 197 6.4 16.1 0.08 0.08 0.08 84 1007.1
20260506192507 13 188 6.4 16.1 0.05 0.05 0.05 84 1007.3
20260506192009 13 231 3.2 16.1 0.03 0.03 0.03 84 1007.3
20260506191523 13 355 3.2 16.1 0.03 0.03 0.03 83 1007.2
20260506191010 13 253 4.8 16.1 0.00 0.00 0.00 83 1007.2
20260506190508 13 195 4.8 14.5 0.00 0.00 0.00 84 1006.9
20260506190008 13 199 3.2 25.7 0.00 0.00 0.00 84 1007.0
20260506185504 13 272 6.4 25.7 0.00 0.00 0.00 83 1007.1
20260506185003 12 215 9.7 25.7 0.00 0.00 0.00 84 1007.1
20260506184512 12 209 12.9 20.9 0.00 0.00 0.00 83 1006.9
20260506184003 12 213 11.3 25.7 0.00 0.00 0.00 83 1006.8
20260506183508 12 197 14.5 25.7 0.00 0.00 0.00 83 1006.8
20260506183027 11 192 17.7 25.7 0.00 0.00 0.00 82 1006.8
20260506182506 11 179 17.7 29.0 0.00 0.00 0.00 82 1006.8
20260506182017 12 199 19.3 29.0 0.00 0.00 0.00 82 1006.9
20260506181520 12 188 16.1 29.0 0.00 0.00 0.00 81 1007.0
20260506181007 12 230 17.7 30.6 0.00 0.00 0.00 82 1006.9
20260506180506 12 226 17.7 30.6 0.00 0.00 0.00 82 1007.0
20260506180026 12 187 17.7 27.4 0.00 0.00 0.00 82 1007.0
20260506175509 12 201 19.3 24.1 0.00 0.00 0.00 84 1007.0
20260506175010 11 207 17.7 24.1 0.00 0.00 0.00 83 1007.1
20260506174514 11 191 17.7 24.1 0.00 0.00 0.00 84 1007.1
20260506174007 11 201 16.1 22.5 0.00 0.00 0.00 83 1007.1
20260506173504 11 188 16.1 22.5 0.00 0.00 0.00 83 1007.2
20260506173014 11 205 16.1 19.3 0.00 0.00 0.00 83 1007.3
20260506172511 11 205 12.9 16.1 0.00 0.00 0.00 83 1007.3
20260506172009 11 168 11.3 19.3 0.00 0.00 0.00 83 1007.4
20260506171517 11 182 14.5 19.3 0.00 0.00 0.00 84 1007.5
20260506171007 11 196 9.7 16.1 0.00 0.00 0.00 83 1007.6
20260506170508 11 217 12.9 16.1 0.00 0.00 0.00 83 1007.7
20260506170024 11 183 11.3 16.1 0.00 0.00 0.00 83 1007.8
20260506165510 11 188 9.7 17.7 0.00 0.00 0.00 82 1007.8
20260506165010 11 202 12.9 17.7 0.00 0.00 0.00 83 1008.0
20260506164526 11 197 11.3 19.3 0.00 0.00 0.00 81 1008.0
20260506164009 12 197 12.9 20.9 0.00 0.00 0.00 81 1008.1
20260506163503 12 198 16.1 22.5 0.00 0.00 0.00 82 1008.1
20260506163019 12 229 16.1 22.5 0.00 0.00 0.00 81 1008.2
20260506162505 12 191 16.1 20.9 0.00 0.00 0.00 81 1008.4
20260506162012 12 189 12.9 17.7 0.00 0.00 0.00 80 1008.4
20260506161517 13 213 12.9 17.7 0.00 0.00 0.00 80 1008.6
20260506161008 13 212 11.3 19.3 0.00 0.00 0.00 79 1008.7
20260506160508 13 218 12.9 20.9 0.00 0.00 0.00 79 1008.7
20260506160019 13 199 14.5 20.9 0.00 0.00 0.00 80 1008.9
20260506155508 13 188 16.1 20.9 0.00 0.00 0.00 80 1008.9
20260506155011 13 207 16.1 20.9 0.00 0.00 0.00 81 1009.0
20260506154534 13 206 12.9 19.3 0.00 0.00 0.00 81 1009.0
20260506154013 12 193 12.9 22.5 0.00 0.00 0.00 81 1009.0
20260506153512 13 205 14.5 25.7 0.00 0.00 0.00 81 1008.9
20260506153029 13 202 19.3 24.1 0.00 0.00 0.00 81 1008.9
20260506152515 13 194 16.1 22.5 0.00 0.00 0.00 80 1009.0
20260506152011 13 207 14.5 22.5 0.00 0.00 0.00 80 1009.1
20260506151514 13 186 12.9 24.1 0.00 0.00 0.00 80 1009.1
20260506151008 13 207 16.1 24.1 0.00 0.00 0.00 80 1009.0
20260506150509 13 217 16.1 22.5 0.00 0.00 0.00 81 1008.8
20260506150017 13 234 16.1 27.4 0.00 0.00 0.00 82 1008.9
20260506145507 12 189 19.3 27.4 0.00 0.00 0.00 86 1008.8
20260506145007 12 195 16.1 24.1 0.00 0.00 0.00 86 1008.9
20260506144523 12 182 12.9 19.3 0.00 0.00 0.00 83 1008.8
20260506144009 12 202 14.5 19.3 0.00 0.00 0.00 83 1008.7
20260506143508 12 199 14.5 19.3 0.00 0.00 0.00 84 1008.7
20260506143008 12 192 14.5 19.3 0.00 0.00 0.00 83 1008.8
20260506142503 12 184 12.9 22.5 0.00 0.00 0.00 81 1008.8
20260506142007 12 178 16.1 22.5 0.00 0.00 0.00 84 1008.8
20260506141512 12 207 14.5 20.9 0.00 0.00 0.00 84 1008.9
20260506141012 12 188 12.9 16.1 0.00 0.00 0.00 84 1009.0
20260506140504 12 193 12.9 16.1 0.00 0.00 0.00 84 1009.0
20260506140020 12 188 11.3 16.1 0.00 0.00 0.00 83 1009.1
20260506135511 12 197 12.9 16.1 0.00 0.00 0.00 84 1009.1
20260506135002 12 195 12.9 17.7 0.00 0.00 0.00 83 1009.2
20260506134505 12 205 9.7 17.7 0.00 0.00 0.00 84 1009.1
20260506134005 12 203 11.3 16.1 0.00 0.00 0.00 84 1009.1
20260506133504 12 213 9.7 17.7 0.00 0.00 0.00 84 1009.0
20260506133005 12 182 11.3 17.7 0.00 0.00 0.00 84 1009.1
20260506132508 12 190 11.3 16.1 0.00 0.00 0.00 84 1009.0
20260506132005 12 204 11.3 17.7 0.00 0.00 0.00 84 1008.9
20260506131515 12 218 11.3 19.3 0.00 0.00 0.00 84 1008.9
20260506131010 12 201 12.9 19.3 0.00 0.00 0.00 84 1008.9
20260506130512 12 199 11.3 17.7 0.00 0.00 0.00 84 1008.9
20260506130014 12 193 11.3 16.1 0.00 0.00 0.00 84 1008.8
20260506125506 12 210 11.3 20.9 0.00 0.00 0.00 85 1008.9
20260506125006 12 203 11.3 20.9 0.00 0.00 0.00 85 1008.9
20260506124519 12 238 11.3 20.9 0.00 0.00 0.00 85 1008.9
20260506124009 12 200 11.3 19.3 0.00 0.00 0.00 87 1009.0
20260506123503 11 194 11.3 16.1 0.00 0.00 0.00 85 1008.9
20260506123008 11 201 11.3 17.7 0.00 0.00 0.00 86 1008.8
20260506122506 11 223 14.5 17.7 0.00 0.00 0.00 86 1008.9
20260506122003 11 199 11.3 14.5 0.00 0.00 0.00 86 1009.0
20260506121505 11 218 8.0 11.3 0.00 0.00 0.00 86 1009.2
20260506121004 11 209 8.0 11.3 0.00 0.00 0.00 86 1009.1
20260506120504 11 199 6.4 9.7 0.00 0.00 0.00 86 1009.3
20260506120012 11 210 4.8 9.7 0.00 0.00 0.00 87 1009.2
20260506115507 11 182 8.0 9.7 0.00 0.00 0.00 86 1009.0
20260506115008 11 190 4.8 9.7 0.00 0.00 0.00 87 1009.4
20260506114515 11 198 6.4 11.3 0.00 0.00 0.00 87 1009.4
20260506114009 11 206 8.0 11.3 0.00 0.00 0.00 87 1009.4
20260506113509 11 204 3.2 6.4 0.00 0.00 0.00 87 1009.5
20260506113022 11 182 0.0 6.4 0.00 0.00 0.00 88 1009.7
20260506112512 10 191 1.6 6.4 0.00 0.00 0.00 88 1009.7
20260506112003 10 195 0.0 3.2 0.00 0.00 0.00 87 1009.3
20260506111506 10 195 0.0 4.8 0.00 0.00 0.00 87 1009.3
20260506111003 10 193 3.2 4.8 0.00 0.00 0.00 87 1009.6
20260506110504 10 176 3.2 4.8 0.00 0.00 0.00 87 1009.4
20260506110011 10 221 1.6 3.2 0.00 0.00 0.00 88 1009.3
20260506105504 10 189 1.6 4.8 0.00 0.00 0.00 87 1009.2